Weather Roundup
Issued by NWS

Home | Current Version | Previous Version | Graphics & Text | Print | Product List | Glossary Off
Versions: 1 2 3 4 5 6 7 8 9 10 11 12 13 14 15 16 17 18 19 20 21 22 23 24 25 26 27 28 29 30 31 32 33 34 35 36 37 38 39 40 41 42 43 44 45 46 47 48 49 50

000
NZUS93 KARX 211510
HRRWXR

CURRENT HOURLY OBSERVATIONS ACROSS
MUCH OF THE UPPER MISSISSIPPI VALLEY
NATIONAL WEATHER SERVICE LA CROSSE WI
1000 AM CDT TUE OCT 21 2014


...SOUTHEAST MINNESOTA...


CITY           SKY/WX    TMP DP  RH WIND       PRES   REMARKS
ROCHESTER      SUNNY     47  41  80 E9        30.21R
ROCHESTER/MAYO FAIR      46  38  74 E5        30.21S
WINONA         MOSUNNY   43  41  93 SE6       30.24R
AUSTIN         SUNNY     46  43  87 E8        30.19R
ALBERT LEA     SUNNY     48  43  81 SE8       30.18R
DODGE CENTER   SUNNY     46  43  87 E10       30.19S
PRESTON        SUNNY     44  39  82 E6        30.21S
OWATONNA       SUNNY     48  41  76 E9        30.19S
FARIBAULT      SUNNY     48  43  81 E9        30.19S
$$

...ELSEWHERE IN MINNESOTA...


CITY           SKY/WX    TMP DP  RH WIND       PRES   REMARKS
MINNEAPOLIS    SUNNY     46  38  73 E14       30.21S
INTNL FALLS    CLOUDY    42  35  76 SE8       30.19R
DULUTH         CLOUDY    42  33  70 SE10      30.23R
RED WING       SUNNY     46  39  76 SE12      30.21S
REDWOOD FALLS  SUNNY     47  40  76 SE13      30.14R
MANKATO        SUNNY     46  37  71 SE12      30.17S
WORTHINGTON    SUNNY     52  41  66 SE8       30.12F
FAIRMONT       SUNNY     46  37  71 S7        30.16R
$$

...SOUTHWEST WISCONSIN...


CITY           SKY/WX    TMP DP  RH WIND       PRES   REMARKS
LA CROSSE      SUNNY     47  37  68 E7        30.23R
PRAIRIE DU CHI MOSUNNY   42  41  95 E3        30.23R
BOSCOBEL       SUNNY     45  39  79 NE8       30.23S
LONE ROCK      SUNNY     50  37  61 NE9       30.23R
PLATTEVILLE    SUNNY     47  41  79 NE8       30.21R
FORT MC COY    PTSUNNY   44  36  73 E9        30.24R
CAMP DOUGLAS   MOSUNNY   46  39  76 NE8       30.23R
VIROQUA        FAIR      45  37  76 E8        30.22R
WIS DELLS      CLOUDY    44  36  73 E6        30.22S
$$

...ELSEWHERE IN WISCONSIN...


CITY           SKY/WX    TMP DP  RH WIND       PRES   REMARKS
MILWAUKEE      CLOUDY    48  39  71 N13       30.18R
MADISON        PTSUNNY   46  38  73 NE10      30.22R
GREEN BAY      CLOUDY    45  37  73 N13       30.23R
EAU CLAIRE     CLOUDY    43  36  76 SE7       30.23R
BLACK RVR FLS  FAIR      44  37  73 E6        30.24R
MEDFORD        PTSUNNY   41  34  75 E8        30.22S
WAUSAU         CLOUDY    42  34  73 E7        30.23R
WIS RAPIDS     CLOUDY    44  35  70 E12       30.25R
MARSHFIELD     CLOUDY    43  35  73 E12       30.22R
RICE LAKE      SUNNY     45  34  66 E6        30.24R
$$

...NORTHEAST IOWA...


CITY           SKY/WX    TMP DP  RH WIND       PRES   REMARKS
DECORAH        SUNNY     46  41  81 VRB5G12   30.21R
MASON CITY     SUNNY     48  42  80 E7        30.20R
CHARLES CITY   SUNNY     48  41  76 E10       30.21R
OELWEIN        SUNNY     50  43  76 E10       30.21R
$$

...ELSEWHERE IN IOWA...


CITY           SKY/WX    TMP DP  RH WIND       PRES   REMARKS
DES MOINES     SUNNY     53  43  68 E5        30.16R
IOWA CITY      SUNNY     52  42  69 NE9       30.21R
FORT DODGE     SUNNY     48  43  81 E5        30.16S
$$

...NORTHERN ILLINOIS...


CITY           SKY/WX    TMP DP  RH WIND       PRES   REMARKS
CHICAGO-OHARE  PTSUNNY   49  40  71 N13       30.15R
CHICAGO-MIDWAY PTSUNNY   51  41  68 N14       30.15R
MOLINE         SUNNY     52  42  69 NE12      30.19R
ROCKFORD       MOSUNNY   50  37  61 NE14      30.22R
PEORIA         SUNNY     53  41  63 NE12      30.17R
$$

NOTE: "FAIR" INDICATES FEW OR NO CLOUDS BELOW 12,000 FEET WITH NO
SIGNIFICANT WEATHER AND/OR OBSTRUCTIONS TO VISIBILITY. WIND
SPEEDS ARE IN MILES-PER-HOUR.



USA.gov is the U.S. government's official web portal to all federal, state and local government web resources and services.